Weather in Vị Thanh

Vietnam     9°46′52″N   105°27′58″E
В апреле 2022 года жителям России запретили посещать сайт meteo.paraplan.net по решению Генеральной прокуратуры. Аудитория сайта уменьшилась в 10 раз. Владельцы сайта не видят смысла в поддержке погодного сервера в таких условиях. Сайт будет закрыт в октябре.
temp.,
°C
wind,
m/s
gust,
m/s
humid.,
%
clouds,
%
prec.,
mm/h
press.,
hPa
HPBL,
m
6 october, thu
thu601:00+24e2496100 4.0 1010102
04:00+25e2393100 1.8 100978
07:00+25ene3594100 1.8 1011142
10:00+26e3787100 5.6 1012183
13:00+25sse2392100 7.6 1010219
16:00+25e019095 0.0 100822
19:00+24nne2290100 0.0 101014
22:00+24ne359488 0.0 1012106
7 october, fri
fri701:00+24ne229580 0.0 101056
04:00+23ne259542 0.0 1009121
07:00+24ene349129 0.0 1011198
10:00+29ene34737 0.0 1012919
13:00+31e346589 0.9 10081122
16:00+30ese2369100 2.4 10071047
19:00+26se3689100 5.0 1009152
22:00+25e2491100 0.0 101195
8 october, sat
sat801:00+25ene2392100 0.0 101060
04:00+25ne2294100 0.2 100938
07:00+26ene239060 0.2 1011154
10:00+30e3470100 2.8 1011905
13:00+29se4473100 3.8 1009819
16:00+26sse5886100 0.9 1008508
19:00+25s259483 1.1 1010178
22:00+25s1293100 0.0 101262
9 october, sun
sun901:00+25nw0093100 0.0 101014
04:00+24nne2293100 0.1 101062
07:00+25nne2391100 0.2 1011116
10:00+28ene2476100 0.1 1012866
13:00+25e3490100 5.0 1010302
16:00+25ese3691100 3.4 1009262
19:00+24ne1194100 3.6 101127
22:00+24ene2295100 0.1 101271
10 october, mon
mon1001:00+24ene2393100 0.1 101175
04:00+23ene2493100 0.0 1010104
07:00+24ene2592100 0.0 1012200
10:00+27ene348194 1.3 1012449
13:00+29e4474100 5.4 1009822
16:00+26e3487100 6.6 1009101
19:00+25e2492100 9.1 1011118
22:00+25ene1192100 0.5 101220